Location: Ottawa
(45.4167°N, 75.7000°W)
Time: 20:29:49
(UTC-04:00)

Vanguard 3 - All Passes

Search period start: 23 October 2017 00:00
Search period end: 02 November 2017 00:00
Orbit: 510 x 3263 km, 33.3° (Epoch: 23 October)

Date Brightness Start Highest point End Pass type
(mag) Time Alt. Az. Time Alt. Az. Time Alt. Az.
23 Oct - 02:12:09 10° SSW 02:24:10 22° SSE 02:33:25 10° ESE visible
23 Oct - 04:23:48 10° SW 04:37:45 37° SSE 04:46:36 10° ESE visible
23 Oct - 06:39:05 10° WSW 06:50:29 40° S 06:57:16 10° ESE visible
23 Oct - 08:55:16 10° WSW 09:01:39 22° SSW 09:06:05 10° SSE daylight
24 Oct - 01:00:10 10° S 01:09:09 15° SE 01:16:57 10° ESE visible
24 Oct - 03:08:17 10° SSW 03:22:53 33° SSE 03:32:57 10° ESE visible
24 Oct - 05:22:36 10° WSW 05:36:19 43° S 05:44:33 10° ESE visible
24 Oct - 07:38:45 10° WSW 07:48:26 33° SSW 07:54:24 10° SE daylight
24 Oct - 09:57:03 10° SW 09:58:41 11° SW 10:00:10 10° SSW daylight
25 Oct - 01:53:49 10° SSW 02:07:46 26° SSE 02:18:29 10° ESE visible
25 Oct - 04:06:17 10° SW 04:21:38 41° S 04:31:24 10° ESE visible
25 Oct - 06:22:05 10° WSW 06:34:39 42° S 06:42:05 10° ESE visible
25 Oct - 08:38:50 10° WSW 08:45:53 22° SSW 08:50:45 10° SSE daylight
26 Oct - 00:41:01 10° S 00:52:37 19° SE 01:02:34 10° ESE visible
26 Oct - 02:50:33 10° SW 03:06:33 37° SSE 03:17:43 10° E visible
26 Oct - 05:05:21 10° WSW 05:20:17 46° S 05:29:19 10° ESE visible
26 Oct - 07:21:56 10° W 07:32:35 34° SSW 07:39:09 10° SE daylight
26 Oct - 09:41:18 10° WSW 09:42:50 11° SW 09:44:14 10° SSW daylight
26 Oct - 23:32:22 10° SSE 23:37:37 12° SE 23:42:39 10° ESE night (unlit)
27 Oct - 01:35:48 10° SSW 01:51:14 31° SSE 02:03:15 10° E visible
27 Oct - 03:48:51 10° SW 04:05:24 45° S 04:16:05 10° ESE visible
27 Oct - 06:05:01 10° WSW 06:18:41 44° SSW 06:26:49 10° SE visible
27 Oct - 08:22:17 10° W 08:30:01 22° SW 08:35:19 10° SSE daylight
28 Oct - 00:22:33 10° S 00:35:56 23° SE 00:47:35 10° E visible
28 Oct - 02:32:58 10° SW 02:50:05 41° SSE 03:02:19 10° E visible
28 Oct - 04:48:07 10° WSW 05:04:09 49° S 05:13:59 10° ESE visible
28 Oct - 07:05:03 10° W 07:16:39 35° SSW 07:23:48 10° SE visible
28 Oct - 09:25:41 10° WSW 09:26:52 10° SW 09:28:00 10° SW daylight
28 Oct - 23:12:01 10° SSE 23:20:52 15° SE 23:29:20 10° ESE night (unlit)
29 Oct - 01:18:05 10° SSW 01:34:34 35° SSE 01:47:48 10° E visible
29 Oct - 03:31:30 10° WSW 03:49:01 49° S 04:00:40 10° ESE visible
29 Oct - 05:47:55 10° W 06:02:36 45° SSW 06:11:29 10° SE visible
29 Oct - 08:05:41 10° W 08:14:01 22° SW 08:19:47 10° S daylight
30 Oct - 00:04:33 10° SSW 00:19:07 27° SE 00:32:12 10° E visible
30 Oct - 02:15:34 10° SW 02:33:29 45° SSE 02:46:46 10° E visible
30 Oct - 04:30:54 10° WSW 04:47:52 50° S 04:58:35 10° ESE visible
30 Oct - 06:48:07 10° W 07:00:34 35° SSW 07:08:22 10° SSE visible
30 Oct - 22:53:10 10° S 23:03:59 18° SE 23:14:36 10° ESE night (unlit)
31 Oct - 01:00:37 10° SSW 01:17:46 38° SSE 01:32:09 10° E visible
31 Oct - 03:14:17 10° WSW 03:32:31 51° S 03:45:07 10° ESE visible
31 Oct - 05:30:49 10° W 05:46:23 45° SSW 05:56:02 10° SE visible
31 Oct - 07:49:01 10° W 07:57:53 22° SW 08:04:08 10° S daylight
31 Oct - 23:46:56 10° SSW 00:02:12 30° SE 00:16:31 10° E visible
01 Nov - 01:58:21 10° SW 02:16:46 48° SSE 02:31:04 10° E visible
01 Nov - 04:13:45 10° WSW 04:31:28 52° S 04:43:03 10° ESE visible
01 Nov - 06:31:08 10° W 06:44:21 34° SSW 06:52:49 10° SSE visible
01 Nov - 22:35:03 10° S 22:47:02 21° SE 22:59:14 10° E night (unlit)
